date,time,SUV Intensity [MED/Hr],UV Index,Daily total [MED],Since Last [MED]
18/06/2023,00:03:06,0.001,0.0,0.0,0.0
18/06/2023,00:04:06,0.000,0.0,0.0,0.0
18/06/2023,00:05:06,0.000,0.0,0.0,0.0
18/06/2023,00:06:07,0.000,0.0,0.0,0.0
18/06/2023,00:07:06,0.000,0.0,0.0,0.0
18/06/2023,00:08:07,0.001,0.0,0.0,0.0
18/06/2023,00:09:06,0.000,0.0,0.0,0.0
18/06/2023,00:10:06,0.000,0.0,0.0,0.0
18/06/2023,00:11:07,0.000,0.0,0.0,0.0
18/06/2023,00:12:06,0.000,0.0,0.0,0.0
18/06/2023,00:13:07,0.000,0.0,0.0,0.0
18/06/2023,00:14:06,0.001,0.0,0.0,0.0
18/06/2023,00:15:06,0.001,0.0,0.0,0.0
18/06/2023,00:16:06,-0.001,0.0,0.0,0.0
18/06/2023,00:17:06,0.001,0.0,0.0,0.0
18/06/2023,00:18:06,0.000,0.0,0.0,0.0
18/06/2023,00:19:07,0.000,0.0,0.0,0.0
18/06/2023,00:20:06,0.001,0.0,0.0,0.0
18/06/2023,00:21:06,0.000,0.0,0.0,0.0
18/06/2023,00:22:06,-0.001,0.0,0.0,0.0
18/06/2023,00:23:07,0.000,0.0,0.0,0.0
18/06/2023,00:24:06,0.000,0.0,0.0,0.0
18/06/2023,00:25:06,0.000,0.0,0.0,0.0
18/06/2023,00:26:06,0.000,0.0,0.0,0.0
18/06/2023,00:27:06,0.000,0.0,0.0,0.0
18/06/2023,00:28:06,0.000,0.0,0.0,0.0
18/06/2023,00:29:06,0.000,0.0,0.0,0.0
18/06/2023,00:30:05,-0.000,0.0,0.0,0.0
18/06/2023,00:31:28,0.000,0.0,0.0,0.0
18/06/2023,00:33:07,0.000,0.0,0.0,0.0
18/06/2023,00:34:06,0.001,0.0,0.0,0.0
18/06/2023,00:35:06,0.000,0.0,0.0,0.0
18/06/2023,00:36:06,0.000,0.0,0.0,0.0
18/06/2023,00:37:07,0.000,0.0,0.0,0.0
18/06/2023,00:38:06,0.000,0.0,0.0,0.0
18/06/2023,00:39:07,-0.000,0.0,0.0,0.0
18/06/2023,00:40:06,0.000,0.0,0.0,0.0
18/06/2023,00:41:06,0.000,0.0,0.0,0.0
18/06/2023,00:42:07,0.000,0.0,0.0,0.0
18/06/2023,00:43:06,0.000,0.0,0.0,0.0
18/06/2023,00:44:06,0.001,0.0,0.0,0.0
18/06/2023,00:45:07,0.000,0.0,0.0,0.0
18/06/2023,00:46:07,0.000,0.0,0.0,0.0
18/06/2023,00:47:06,0.000,0.0,0.0,0.0
18/06/2023,00:48:07,0.000,0.0,0.0,0.0
18/06/2023,00:49:06,0.000,0.0,0.0,0.0
18/06/2023,00:50:06,0.000,0.0,0.0,0.0
18/06/2023,00:51:08,0.000,0.0,0.0,0.0
18/06/2023,00:52:06,0.000,0.0,0.0,0.0
18/06/2023,00:53:06,0.000,0.0,0.0,0.0
18/06/2023,00:54:06,0.001,0.0,0.0,0.0
18/06/2023,00:55:06,0.001,0.0,0.0,0.0
18/06/2023,00:56:06,0.001,0.0,0.0,0.0
18/06/2023,00:57:06,0.000,0.0,0.0,0.0
18/06/2023,00:58:06,0.001,0.0,0.0,0.0
18/06/2023,00:59:06,0.001,0.0,0.0,0.0
18/06/2023,01:00:07,0.002,0.0,0.0,0.0
18/06/2023,01:01:07,0.001,0.0,0.0,0.0
18/06/2023,01:02:06,0.000,0.0,0.0,0.0
18/06/2023,01:03:06,-0.000,0.0,0.0,0.0
18/06/2023,01:04:07,0.001,0.0,0.0,0.0
18/06/2023,01:05:07,0.001,0.0,0.0,0.0
18/06/2023,01:06:06,0.001,0.0,0.0,0.0
18/06/2023,01:07:07,0.001,0.0,0.0,0.0
18/06/2023,01:08:07,0.000,0.0,0.0,0.0
18/06/2023,01:09:06,0.001,0.0,0.0,0.0
18/06/2023,01:10:06,0.001,0.0,0.0,0.0
18/06/2023,01:11:06,0.001,0.0,0.0,0.0
18/06/2023,01:12:07,0.001,0.0,0.0,0.0
18/06/2023,01:13:06,0.002,0.0,0.0,0.0
18/06/2023,01:14:06,0.000,0.0,0.0,0.0
18/06/2023,01:15:06,0.000,0.0,0.0,0.0
18/06/2023,01:16:06,0.001,0.0,0.0,0.0
18/06/2023,01:17:06,0.001,0.0,0.0,0.0
18/06/2023,01:18:07,0.001,0.0,0.0,0.0
18/06/2023,01:19:07,0.001,0.0,0.0,0.0
18/06/2023,01:20:06,-0.000,0.0,0.0,0.0
18/06/2023,01:21:06,0.001,0.0,0.0,0.0
18/06/2023,01:22:07,0.001,0.0,0.0,0.0
18/06/2023,01:23:06,0.001,0.0,0.0,0.0
18/06/2023,01:24:07,0.001,0.0,0.0,0.0
18/06/2023,01:25:07,0.001,0.0,0.0,0.0
18/06/2023,01:26:06,0.001,0.0,0.0,0.0
18/06/2023,01:27:06,0.001,0.0,0.0,0.0
18/06/2023,01:28:06,0.001,0.0,0.0,0.0
18/06/2023,01:29:07,0.000,0.0,0.0,0.0
18/06/2023,01:30:06,0.001,0.0,0.0,0.0
18/06/2023,01:31:06,-0.000,0.0,0.0,0.0
18/06/2023,01:32:07,0.001,0.0,0.0,0.0
18/06/2023,01:33:07,0.001,0.0,0.0,0.0
18/06/2023,01:34:06,-0.001,0.0,0.0,0.0
18/06/2023,01:35:07,0.002,0.0,0.0,0.0
18/06/2023,01:36:06,0.000,0.0,0.0,0.0
18/06/2023,01:37:06,0.001,0.0,0.0,0.0
18/06/2023,01:38:06,0.001,0.0,0.0,0.0
18/06/2023,01:39:07,0.001,0.0,0.0,0.0
18/06/2023,01:40:06,0.001,0.0,0.0,0.0
18/06/2023,01:41:07,0.000,0.0,0.0,0.0
18/06/2023,01:42:06,0.001,0.0,0.0,0.0
18/06/2023,01:43:07,0.002,0.0,0.0,0.0
18/06/2023,01:44:06,0.001,0.0,0.0,0.0
18/06/2023,01:45:07,0.000,0.0,0.0,0.0
18/06/2023,01:46:06,0.001,0.0,0.0,0.0
18/06/2023,01:47:07,0.000,0.0,0.0,0.0
18/06/2023,01:48:07,0.001,0.0,0.0,0.0
18/06/2023,01:49:06,0.000,0.0,0.0,0.0
18/06/2023,01:50:07,0.001,0.0,0.0,0.0
18/06/2023,01:51:06,0.001,0.0,0.0,0.0
18/06/2023,01:52:07,0.001,0.0,0.0,0.0
18/06/2023,01:53:06,0.001,0.0,0.0,0.0
18/06/2023,01:54:06,0.001,0.0,0.0,0.0
18/06/2023,01:55:07,0.001,0.0,0.0,0.0
18/06/2023,01:56:08,0.001,0.0,0.0,0.0
18/06/2023,01:57:06,0.001,0.0,0.0,0.0
18/06/2023,01:58:07,0.000,0.0,0.0,0.0
18/06/2023,01:59:06,0.001,0.0,0.0,0.0
18/06/2023,02:00:07,-0.000,0.0,0.0,0.0
18/06/2023,02:01:07,0.002,0.0,0.0,0.0
18/06/2023,02:02:06,0.001,0.0,0.0,0.0
18/06/2023,02:03:06,0.001,0.0,0.0,0.0
18/06/2023,02:04:06,0.001,0.0,0.0,0.0
18/06/2023,02:05:07,0.001,0.0,0.0,0.0
18/06/2023,02:06:07,0.001,0.0,0.0,0.0
18/06/2023,02:07:06,0.001,0.0,0.0,0.0
18/06/2023,02:08:06,0.001,0.0,0.0,0.0
18/06/2023,02:09:07,0.001,0.0,0.0,0.0
18/06/2023,02:10:06,0.001,0.0,0.0,0.0
18/06/2023,02:11:07,0.001,0.0,0.0,0.0
18/06/2023,02:12:07,0.001,0.0,0.0,0.0
18/06/2023,02:13:06,0.001,0.0,0.0,0.0
18/06/2023,02:14:05,0.001,0.0,0.0,0.0
18/06/2023,02:15:06,0.001,0.0,0.0,0.0
18/06/2023,02:16:06,0.001,0.0,0.0,0.0
18/06/2023,02:17:07,0.000,0.0,0.0,0.0
18/06/2023,02:18:07,0.001,0.0,0.0,0.0
18/06/2023,02:19:07,0.000,0.0,0.0,0.0
18/06/2023,02:20:06,0.001,0.0,0.0,0.0
18/06/2023,02:21:07,0.001,0.0,0.0,0.0
18/06/2023,02:22:06,-0.000,0.0,0.0,0.0
18/06/2023,02:23:07,0.001,0.0,0.0,0.0
18/06/2023,02:24:07,0.000,0.0,0.0,0.0
18/06/2023,02:25:07,0.001,0.0,0.0,0.0
18/06/2023,02:26:06,0.000,0.0,0.0,0.0
18/06/2023,02:27:06,0.000,0.0,0.0,0.0
18/06/2023,02:28:07,0.001,0.0,0.0,0.0
18/06/2023,02:29:07,0.001,0.0,0.0,0.0
18/06/2023,02:30:07,0.001,0.0,0.0,0.0
18/06/2023,02:31:06,0.001,0.0,0.0,0.0
18/06/2023,02:32:07,0.000,0.0,0.0,0.0
18/06/2023,02:33:07,0.001,0.0,0.0,0.0
18/06/2023,02:34:06,0.001,0.0,0.0,0.0
18/06/2023,02:35:06,0.001,0.0,0.0,0.0
18/06/2023,02:36:07,0.001,0.0,0.0,0.0
18/06/2023,02:37:07,0.001,0.0,0.0,0.0
18/06/2023,02:38:06,0.001,0.0,0.0,0.0
18/06/2023,02:39:07,0.001,0.0,0.0,0.0
18/06/2023,02:40:06,0.001,0.0,0.0,0.0
18/06/2023,02:41:07,0.001,0.0,0.0,0.0
18/06/2023,02:42:07,0.001,0.0,0.0,0.0
18/06/2023,02:43:06,0.001,0.0,0.0,0.0
18/06/2023,02:44:07,-0.000,0.0,0.0,0.0
18/06/2023,02:45:06,0.001,0.0,0.0,0.0
18/06/2023,02:46:06,0.001,0.0,0.0,0.0
18/06/2023,02:47:07,0.001,0.0,0.0,0.0
18/06/2023,02:48:06,0.001,0.0,0.0,0.0
18/06/2023,02:49:07,0.001,0.0,0.0,0.0
18/06/2023,02:50:07,0.000,0.0,0.0,0.0
18/06/2023,02:51:07,0.001,0.0,0.0,0.0
18/06/2023,02:52:07,0.002,0.0,0.0,0.0
18/06/2023,02:53:06,0.001,0.0,0.0,0.0
18/06/2023,02:54:06,0.001,0.0,0.0,0.0
18/06/2023,02:55:07,0.001,0.0,0.0,0.0
18/06/2023,02:56:06,0.001,0.0,0.0,0.0
18/06/2023,02:57:06,0.001,0.0,0.0,0.0
18/06/2023,02:58:07,0.001,0.0,0.0,0.0
18/06/2023,02:59:06,0.000,0.0,0.0,0.0
18/06/2023,03:00:07,0.001,0.0,0.0,0.0
18/06/2023,03:01:07,0.001,0.0,0.0,0.0
18/06/2023,03:02:07,0.002,0.0,0.0,0.0
18/06/2023,03:03:06,0.001,0.0,0.0,0.0
18/06/2023,03:04:07,0.001,0.0,0.0,0.0
18/06/2023,03:05:06,0.001,0.0,0.0,0.0
18/06/2023,03:06:07,0.001,0.0,0.0,0.0
18/06/2023,03:07:07,0.001,0.0,0.0,0.0
18/06/2023,03:08:07,0.000,0.0,0.0,0.0
18/06/2023,03:09:06,0.001,0.0,0.0,0.0
18/06/2023,03:10:07,0.001,0.0,0.0,0.0
18/06/2023,03:11:07,0.001,0.0,0.0,0.0
18/06/2023,03:12:07,0.002,0.0,0.0,0.0
18/06/2023,03:13:06,0.001,0.0,0.0,0.0
18/06/2023,03:14:06,0.001,0.0,0.0,0.0
18/06/2023,03:15:06,0.001,0.0,0.0,0.0
18/06/2023,03:16:07,0.002,0.0,0.0,0.0
18/06/2023,03:17:07,0.001,0.0,0.0,0.0
18/06/2023,03:18:06,0.001,0.0,0.0,0.0
18/06/2023,03:19:07,0.001,0.0,0.0,0.0
18/06/2023,03:20:07,0.002,0.0,0.0,0.0
18/06/2023,03:21:07,0.002,0.0,0.0,0.0
18/06/2023,03:22:07,0.002,0.0,0.0,0.0
18/06/2023,03:23:06,0.002,0.0,0.0,0.0
18/06/2023,03:24:06,0.002,0.0,0.0,0.0
18/06/2023,03:25:06,0.002,0.0,0.0,0.0
18/06/2023,03:26:06,0.003,0.0,0.0,0.0
18/06/2023,03:27:07,0.002,0.0,0.0,0.0
18/06/2023,03:28:06,0.002,0.0,0.0,0.0
18/06/2023,03:29:07,0.002,0.0,0.0,0.0
18/06/2023,03:30:07,0.002,0.0,0.0,0.0
18/06/2023,03:31:06,0.002,0.0,0.0,0.0
18/06/2023,03:32:07,0.002,0.0,0.0,0.0
18/06/2023,03:33:06,0.003,0.0,0.0,0.0
18/06/2023,03:34:07,0.002,0.0,0.0,0.0
18/06/2023,03:35:07,0.002,0.0,0.0,0.0
18/06/2023,03:36:06,0.002,0.0,0.0,0.0
18/06/2023,03:37:06,0.002,0.0,0.0,0.0
18/06/2023,03:38:07,0.002,0.0,0.0,0.0
18/06/2023,03:39:07,0.002,0.0,0.0,0.0
18/06/2023,03:40:06,0.002,0.0,0.0,0.0
18/06/2023,03:41:07,0.004,0.0,0.0,0.0
18/06/2023,03:42:07,0.003,0.0,0.0,0.0
18/06/2023,03:43:06,0.003,0.0,0.0,0.0
18/06/2023,03:44:07,0.004,0.0,0.0,0.0
18/06/2023,03:45:07,0.003,0.0,0.0,0.0
18/06/2023,03:46:06,0.003,0.0,0.0,0.0
18/06/2023,03:47:07,0.003,0.0,0.0,0.0
18/06/2023,03:48:06,0.003,0.0,0.0,0.0
18/06/2023,03:49:07,0.003,0.0,0.0,0.0
18/06/2023,03:50:08,0.002,0.0,0.0,0.0
18/06/2023,03:51:07,0.002,0.0,0.0,0.0
18/06/2023,03:52:07,0.004,0.0,0.0,0.0
18/06/2023,03:53:06,0.004,0.0,0.0,0.0
18/06/2023,03:54:07,0.004,0.0,0.0,0.0
18/06/2023,03:55:07,0.004,0.0,0.0,0.0
18/06/2023,03:56:07,0.004,0.0,0.0,0.0
18/06/2023,03:57:06,0.004,0.0,0.0,0.0
18/06/2023,03:58:07,0.004,0.0,0.0,0.0
18/06/2023,03:59:06,0.003,0.0,0.0,0.0
18/06/2023,04:00:07,0.004,0.0,0.0,0.0
18/06/2023,04:01:07,0.004,0.0,0.0,0.0
18/06/2023,04:02:06,0.005,0.0,0.0,0.0
18/06/2023,04:03:08,0.004,0.0,0.0,0.0
18/06/2023,04:04:07,0.005,0.0,0.0,0.0
18/06/2023,04:05:07,0.005,0.0,0.0,0.0
18/06/2023,04:06:07,0.004,0.0,0.0,0.0
18/06/2023,04:07:06,0.005,0.0,0.0,0.0
18/06/2023,04:08:07,0.005,0.0,0.0,0.0
18/06/2023,04:09:06,0.006,0.0,0.0,0.0
18/06/2023,04:10:07,0.006,0.0,0.0,0.0
18/06/2023,04:11:06,0.006,0.0,0.0,0.0
18/06/2023,04:12:07,0.006,0.0,0.0,0.0
18/06/2023,04:13:05,0.006,0.0,0.0,0.0
18/06/2023,04:14:07,0.006,0.0,0.0,0.0
18/06/2023,04:15:06,0.006,0.0,0.0,0.0
18/06/2023,04:16:07,0.007,0.0,0.0,0.0
18/06/2023,04:17:06,0.006,0.0,0.0,0.0
18/06/2023,04:18:07,0.006,0.0,0.0,0.0
18/06/2023,04:19:06,0.006,0.0,0.0,0.0
18/06/2023,04:20:07,0.007,0.0,0.0,0.0
18/06/2023,04:21:07,0.008,0.0,0.0,0.0
18/06/2023,04:22:06,0.005,0.0,0.0,0.0
18/06/2023,04:23:06,0.006,0.0,0.001,0.001
18/06/2023,04:24:07,0.008,0.0,0.001,0.0
18/06/2023,04:25:07,0.008,0.0,0.001,0.0
18/06/2023,04:26:07,0.009,0.0,0.001,0.0
18/06/2023,04:27:06,0.008,0.0,0.001,0.0
18/06/2023,04:28:07,0.009,0.0,0.001,0.0
18/06/2023,04:29:07,0.008,0.0,0.001,0.0
18/06/2023,04:30:06,0.008,0.0,0.001,0.0
18/06/2023,04:31:07,0.008,0.0,0.002,0.001
18/06/2023,04:32:07,0.008,0.0,0.002,0.0
18/06/2023,04:33:07,0.008,0.0,0.002,0.0
18/06/2023,04:34:07,0.008,0.0,0.002,0.0
18/06/2023,04:35:07,0.008,0.0,0.002,0.0
18/06/2023,04:36:08,0.007,0.0,0.002,0.0
18/06/2023,04:37:07,0.008,0.0,0.002,0.0
18/06/2023,04:38:06,0.006,0.0,0.003,0.001
18/06/2023,04:39:07,0.007,0.0,0.003,0.0
18/06/2023,04:40:06,0.007,0.0,0.003,0.0
18/06/2023,04:41:07,0.006,0.0,0.003,0.0
18/06/2023,04:42:07,0.007,0.0,0.003,0.0
18/06/2023,04:43:06,0.006,0.0,0.003,0.0
18/06/2023,04:44:07,0.006,0.0,0.003,0.0
18/06/2023,04:45:07,0.006,0.0,0.003,0.0
18/06/2023,04:46:07,0.006,0.0,0.003,0.0
18/06/2023,04:47:06,0.007,0.0,0.003,0.0
18/06/2023,04:48:07,0.008,0.0,0.003,0.0
18/06/2023,04:49:06,0.008,0.0,0.003,0.0
18/06/2023,04:50:07,0.010,0.0,0.004,0.001
18/06/2023,04:51:07,0.012,0.0,0.004,0.0
18/06/2023,04:52:06,0.011,0.0,0.004,0.0
18/06/2023,04:53:07,0.014,0.0,0.004,0.0
18/06/2023,04:54:07,0.015,0.0,0.004,0.0
18/06/2023,04:55:07,0.016,0.0,0.005,0.001
18/06/2023,04:56:07,0.016,0.0,0.005,0.0
18/06/2023,04:57:06,0.018,0.0,0.005,0.0
18/06/2023,04:58:07,0.019,0.0,0.005,0.0
18/06/2023,04:59:07,0.020,0.0,0.006,0.001
18/06/2023,05:00:07,0.022,0.0,0.006,0.0
18/06/2023,05:01:07,0.023,0.0,0.007,0.001
18/06/2023,05:02:06,0.024,0.0,0.007,0.0
18/06/2023,05:03:07,0.024,0.0,0.007,0.0
18/06/2023,05:04:06,0.023,0.0,0.008,0.001
18/06/2023,05:05:07,0.023,0.0,0.008,0.0
18/06/2023,05:06:07,0.022,0.0,0.008,0.0
18/06/2023,05:07:07,0.020,0.0,0.009,0.001
18/06/2023,05:08:06,0.020,0.0,0.009,0.0
18/06/2023,05:09:07,0.021,0.0,0.009,0.0
18/06/2023,05:10:07,0.022,0.0,0.01,0.001
18/06/2023,05:11:07,0.023,0.0,0.01,0.0
18/06/2023,05:12:07,0.024,0.0,0.011,0.001
18/06/2023,05:13:07,0.025,0.0,0.011,0.0
18/06/2023,05:14:07,0.026,0.0,0.011,0.0
18/06/2023,05:15:07,0.027,0.0,0.012,0.001
18/06/2023,05:16:07,0.026,0.0,0.012,0.0
18/06/2023,05:17:06,0.026,0.0,0.013,0.001
18/06/2023,05:18:07,0.026,0.0,0.013,0.0
18/06/2023,05:19:07,0.027,0.0,0.014,0.001
18/06/2023,05:20:07,0.027,0.0,0.014,0.0
18/06/2023,05:21:06,0.028,0.0,0.015,0.001
18/06/2023,05:22:07,0.028,0.0,0.015,0.0
18/06/2023,05:23:07,0.028,0.0,0.015,0.0
18/06/2023,05:24:06,0.028,0.0,0.016,0.001
18/06/2023,05:25:07,0.026,0.0,0.016,0.0
18/06/2023,05:26:07,0.024,0.0,0.017,0.001
18/06/2023,05:27:06,0.023,0.0,0.017,0.0
18/06/2023,05:28:06,0.022,0.0,0.018,0.001
18/06/2023,05:29:07,0.021,0.0,0.018,0.0
18/06/2023,05:30:07,0.021,0.0,0.018,0.0
18/06/2023,05:31:07,0.021,0.0,0.019,0.001
18/06/2023,05:32:07,0.022,0.0,0.019,0.0
18/06/2023,05:33:06,0.022,0.0,0.019,0.0
18/06/2023,05:34:07,0.024,0.0,0.02,0.001
18/06/2023,05:35:06,0.025,0.0,0.02,0.0
18/06/2023,05:36:07,0.027,0.0,0.021,0.001
18/06/2023,05:37:07,0.028,0.0,0.021,0.0
18/06/2023,05:38:07,0.032,0.0,0.022,0.001
18/06/2023,05:39:06,0.034,0.0,0.022,0.0
18/06/2023,05:40:07,0.036,0.0,0.023,0.001
18/06/2023,05:41:07,0.038,0.0,0.023,0.0
18/06/2023,05:42:07,0.042,0.0,0.024,0.001
18/06/2023,05:43:07,0.043,0.0,0.025,0.001
18/06/2023,05:44:06,0.046,0.0,0.025,0.0
18/06/2023,05:45:07,0.050,0.0,0.026,0.001
18/06/2023,05:46:07,0.053,0.0,0.027,0.001
18/06/2023,05:47:07,0.059,0.0,0.028,0.001
18/06/2023,05:48:09,0.063,0.0,0.029,0.001
18/06/2023,05:49:07,0.066,0.0,0.03,0.001
18/06/2023,05:50:07,0.071,0.0,0.031,0.001
18/06/2023,05:51:07,0.074,0.0,0.032,0.001
18/06/2023,05:52:06,0.078,0.0,0.034,0.002
18/06/2023,05:53:07,0.081,0.0,0.035,0.001
18/06/2023,05:54:07,0.084,0.0,0.037,0.002
18/06/2023,05:55:08,0.088,0.0,0.038,0.001
18/06/2023,05:56:07,0.089,0.0,0.039,0.001
18/06/2023,05:57:07,0.090,0.0,0.041,0.002
18/06/2023,05:58:06,0.090,0.0,0.042,0.001
18/06/2023,05:59:07,0.089,0.0,0.044,0.002
18/06/2023,06:00:07,0.089,0.0,0.045,0.001
18/06/2023,06:01:07,0.089,0.0,0.047,0.002
18/06/2023,06:02:06,0.091,0.0,0.048,0.001
18/06/2023,06:03:07,0.092,0.0,0.05,0.002
18/06/2023,06:04:06,0.092,0.0,0.051,0.001
18/06/2023,06:05:06,0.093,0.0,0.053,0.002
18/06/2023,06:06:07,0.090,0.0,0.054,0.001
18/06/2023,06:07:06,0.089,0.0,0.056,0.002
18/06/2023,06:08:07,0.086,0.0,0.057,0.001
18/06/2023,06:09:07,0.085,0.0,0.059,0.002
18/06/2023,06:10:07,0.086,0.0,0.06,0.001
18/06/2023,06:11:06,0.088,0.0,0.062,0.002
18/06/2023,06:12:07,0.095,0.0,0.063,0.001
18/06/2023,06:13:06,0.101,0.0,0.065,0.002
18/06/2023,06:14:07,0.108,0.0,0.067,0.002
18/06/2023,06:15:07,0.114,0.0,0.068,0.001
18/06/2023,06:16:07,0.121,0.0,0.071,0.003
18/06/2023,06:17:07,0.127,0.0,0.073,0.002
18/06/2023,06:18:06,0.132,0.0,0.075,0.002
18/06/2023,06:19:06,0.135,0.0,0.077,0.002
18/06/2023,06:20:07,0.138,0.0,0.079,0.002
18/06/2023,06:21:07,0.139,0.0,0.082,0.003
18/06/2023,06:22:07,0.138,0.0,0.084,0.002
18/06/2023,06:23:07,0.135,0.0,0.086,0.002
18/06/2023,06:24:07,0.131,0.0,0.088,0.002
18/06/2023,06:25:07,0.127,0.0,0.091,0.003
18/06/2023,06:26:07,0.126,0.0,0.093,0.002
18/06/2023,06:27:07,0.127,0.0,0.095,0.002
18/06/2023,06:28:07,0.128,0.0,0.097,0.002
18/06/2023,06:29:07,0.132,0.0,0.099,0.002
18/06/2023,06:30:07,0.136,0.0,0.101,0.002
18/06/2023,06:31:06,0.141,0.0,0.104,0.003
18/06/2023,06:32:06,0.144,0.0,0.106,0.002
18/06/2023,06:33:07,0.148,0.0,0.108,0.002
18/06/2023,06:34:07,0.153,0.0,0.111,0.003
18/06/2023,06:35:07,0.157,0.0,0.114,0.003
18/06/2023,06:36:07,0.162,0.0,0.116,0.002
18/06/2023,06:37:07,0.170,0.0,0.119,0.003
18/06/2023,06:38:07,0.177,0.0,0.122,0.003
18/06/2023,06:39:07,0.182,0.0,0.125,0.003
18/06/2023,06:40:07,0.186,0.0,0.128,0.003
18/06/2023,06:41:08,0.190,0.0,0.131,0.003
18/06/2023,06:42:07,0.192,0.0,0.134,0.003
18/06/2023,06:43:07,0.194,0.0,0.137,0.003
18/06/2023,06:44:07,0.195,0.0,0.141,0.004
18/06/2023,06:45:07,0.197,0.0,0.144,0.003
18/06/2023,06:46:07,0.199,0.0,0.147,0.003
18/06/2023,06:47:07,0.201,0.0,0.15,0.003
18/06/2023,06:48:07,0.200,0.0,0.154,0.004
18/06/2023,06:49:07,0.199,0.0,0.157,0.003
18/06/2023,06:50:07,0.196,0.0,0.161,0.004
18/06/2023,06:51:07,0.198,0.0,0.164,0.003
18/06/2023,06:52:07,0.203,0.0,0.167,0.003
18/06/2023,06:53:07,0.210,0.0,0.171,0.004
18/06/2023,06:54:07,0.219,1.0,0.174,0.003
18/06/2023,06:55:07,0.226,1.0,0.178,0.004
18/06/2023,06:56:07,0.229,1.0,0.182,0.004
18/06/2023,06:57:07,0.231,1.0,0.186,0.004
18/06/2023,06:58:07,0.232,1.0,0.189,0.003
18/06/2023,06:59:07,0.228,1.0,0.193,0.004
18/06/2023,07:00:07,0.226,1.0,0.197,0.004
18/06/2023,07:01:07,0.225,1.0,0.201,0.004
18/06/2023,07:02:06,0.227,1.0,0.204,0.003
18/06/2023,07:03:07,0.229,1.0,0.208,0.004
18/06/2023,07:04:06,0.231,1.0,0.212,0.004
18/06/2023,07:05:07,0.234,1.0,0.216,0.004
18/06/2023,07:06:07,0.233,1.0,0.22,0.004
18/06/2023,07:07:06,0.229,1.0,0.224,0.004
18/06/2023,07:08:07,0.221,1.0,0.228,0.004
18/06/2023,07:09:07,0.209,0.0,0.231,0.003
18/06/2023,07:10:07,0.197,0.0,0.234,0.003
18/06/2023,07:11:07,0.189,0.0,0.238,0.004
18/06/2023,07:12:07,0.188,0.0,0.241,0.003
18/06/2023,07:13:07,0.187,0.0,0.244,0.003
18/06/2023,07:14:07,0.191,0.0,0.247,0.003
18/06/2023,07:15:07,0.198,0.0,0.25,0.003
18/06/2023,07:16:07,0.203,0.0,0.253,0.003
18/06/2023,07:17:07,0.207,0.0,0.257,0.004
18/06/2023,07:18:06,0.223,1.0,0.261,0.004
18/06/2023,07:19:07,0.231,1.0,0.264,0.003
18/06/2023,07:20:07,0.238,1.0,0.268,0.004
18/06/2023,07:21:07,0.242,1.0,0.272,0.004
18/06/2023,07:22:07,0.258,1.0,0.276,0.004
18/06/2023,07:23:07,0.270,1.0,0.281,0.005
18/06/2023,07:24:07,0.277,1.0,0.285,0.004
18/06/2023,07:25:07,0.292,1.0,0.29,0.005
18/06/2023,07:26:07,0.296,1.0,0.295,0.005
18/06/2023,07:27:07,0.295,1.0,0.3,0.005
18/06/2023,07:28:07,0.298,1.0,0.305,0.005
18/06/2023,07:29:07,0.300,1.0,0.31,0.005
18/06/2023,07:30:07,0.301,1.0,0.315,0.005
18/06/2023,07:31:07,0.302,1.0,0.32,0.005
18/06/2023,07:32:07,0.303,1.0,0.325,0.005
18/06/2023,07:33:06,0.321,1.0,0.33,0.005
18/06/2023,07:34:07,0.357,1.0,0.336,0.006
18/06/2023,07:35:07,0.404,1.0,0.342,0.006
18/06/2023,07:36:08,0.424,1.0,0.349,0.007
18/06/2023,07:37:08,0.434,1.0,0.356,0.007
18/06/2023,07:38:07,0.447,1.0,0.364,0.008
18/06/2023,07:39:07,0.464,1.0,0.371,0.007
18/06/2023,07:40:07,0.464,1.0,0.379,0.008
18/06/2023,07:41:07,0.468,1.0,0.387,0.008
18/06/2023,07:42:07,0.476,1.0,0.395,0.008
18/06/2023,07:43:07,0.478,1.0,0.402,0.007
18/06/2023,07:44:07,0.482,1.0,0.41,0.008
18/06/2023,07:45:07,0.523,1.0,0.419,0.009
18/06/2023,07:46:06,0.520,1.0,0.427,0.008
18/06/2023,07:47:07,0.531,1.0,0.436,0.009
18/06/2023,07:48:07,0.540,1.0,0.445,0.009
18/06/2023,07:49:07,0.563,1.0,0.454,0.009
18/06/2023,07:50:07,0.571,1.0,0.463,0.009
18/06/2023,07:51:07,0.577,1.0,0.473,0.01
18/06/2023,07:52:07,0.577,1.0,0.483,0.01
18/06/2023,07:53:07,0.584,1.0,0.493,0.01
18/06/2023,07:54:07,0.598,1.0,0.502,0.009
18/06/2023,07:55:07,0.567,1.0,0.512,0.01
18/06/2023,07:56:07,0.596,1.0,0.521,0.009
18/06/2023,07:57:07,0.592,1.0,0.531,0.01
18/06/2023,07:58:07,0.608,1.0,0.541,0.01
18/06/2023,07:59:08,0.617,1.0,0.552,0.011
18/06/2023,08:00:07,0.621,1.0,0.562,0.01
18/06/2023,08:01:07,0.626,1.0,0.573,0.011
18/06/2023,08:02:07,0.637,1.0,0.583,0.01
18/06/2023,08:03:07,0.638,1.0,0.593,0.01
18/06/2023,08:04:07,0.645,1.0,0.604,0.011
18/06/2023,08:05:07,0.653,2.0,0.615,0.011
18/06/2023,08:06:07,0.657,2.0,0.626,0.011
18/06/2023,08:07:07,0.650,1.0,0.637,0.011
18/06/2023,08:08:07,0.658,2.0,0.648,0.011
18/06/2023,08:09:07,0.653,2.0,0.659,0.011
18/06/2023,08:10:07,0.650,1.0,0.669,0.01
18/06/2023,08:11:07,0.653,2.0,0.681,0.012
18/06/2023,08:12:07,0.652,1.0,0.691,0.01
18/06/2023,08:13:07,0.651,1.0,0.702,0.011
18/06/2023,08:14:07,0.625,1.0,0.712,0.01
18/06/2023,08:15:09,0.631,1.0,0.723,0.011
18/06/2023,08:16:07,0.623,1.0,0.733,0.01
18/06/2023,08:17:07,0.622,1.0,0.744,0.011
18/06/2023,08:18:07,0.625,1.0,0.754,0.01
18/06/2023,08:19:07,0.632,1.0,0.764,0.01
18/06/2023,08:20:07,0.644,1.0,0.775,0.011
18/06/2023,08:21:08,0.650,1.0,0.786,0.011
18/06/2023,08:22:06,0.657,2.0,0.797,0.011
18/06/2023,08:23:07,0.662,2.0,0.808,0.011
18/06/2023,08:24:07,0.675,2.0,0.819,0.011
18/06/2023,08:25:07,0.689,2.0,0.831,0.012
18/06/2023,08:26:07,0.704,2.0,0.842,0.011
18/06/2023,08:27:07,0.731,2.0,0.854,0.012
18/06/2023,08:28:07,0.737,2.0,0.866,0.012
18/06/2023,08:29:08,0.738,2.0,0.879,0.013
18/06/2023,08:30:08,0.745,2.0,0.891,0.012
18/06/2023,08:31:07,0.746,2.0,0.904,0.013
18/06/2023,08:32:07,0.751,2.0,0.916,0.012
18/06/2023,08:33:07,0.758,2.0,0.928,0.012
18/06/2023,08:34:07,0.746,2.0,0.941,0.013
18/06/2023,08:35:07,0.751,2.0,0.953,0.012
18/06/2023,08:36:07,0.746,2.0,0.966,0.013
18/06/2023,08:37:07,0.761,2.0,0.979,0.013
18/06/2023,08:38:08,0.772,2.0,0.991,0.012
18/06/2023,08:39:07,0.788,2.0,1.004,0.013
18/06/2023,08:40:07,0.785,2.0,1.017,0.013
18/06/2023,08:41:07,0.762,2.0,1.03,0.013
18/06/2023,08:42:07,0.744,2.0,1.043,0.013
18/06/2023,08:43:07,0.754,2.0,1.056,0.013
18/06/2023,08:44:08,0.715,2.0,1.068,0.012
18/06/2023,08:45:07,0.691,2.0,1.079,0.011
18/06/2023,08:46:07,0.676,2.0,1.091,0.012
18/06/2023,08:47:07,0.647,1.0,1.102,0.011
18/06/2023,08:48:07,0.618,1.0,1.112,0.01
18/06/2023,08:49:07,0.599,1.0,1.123,0.011
18/06/2023,08:50:07,0.587,1.0,1.133,0.01
18/06/2023,08:51:07,0.568,1.0,1.142,0.009
18/06/2023,08:52:07,0.546,1.0,1.151,0.009
18/06/2023,08:53:08,0.526,1.0,1.16,0.009
18/06/2023,08:54:07,0.516,1.0,1.169,0.009
18/06/2023,08:55:09,0.519,1.0,1.178,0.009
18/06/2023,08:56:07,0.534,1.0,1.186,0.008
18/06/2023,08:57:07,0.579,1.0,1.195,0.009
18/06/2023,08:58:07,0.571,1.0,1.205,0.01
18/06/2023,08:59:08,0.597,1.0,1.215,0.01
18/06/2023,09:00:08,0.609,1.0,1.225,0.01
18/06/2023,09:01:06,0.606,1.0,1.235,0.01
18/06/2023,09:02:08,0.566,1.0,1.245,0.01
18/06/2023,09:03:07,0.552,1.0,1.254,0.009
18/06/2023,09:04:08,0.542,1.0,1.263,0.009
18/06/2023,09:05:07,0.527,1.0,1.272,0.009
18/06/2023,09:06:07,0.517,1.0,1.28,0.008
18/06/2023,09:07:07,0.513,1.0,1.289,0.009
18/06/2023,09:08:07,0.515,1.0,1.297,0.008
18/06/2023,09:09:07,0.511,1.0,1.306,0.009
18/06/2023,09:10:07,0.505,1.0,1.314,0.008
18/06/2023,09:11:07,0.542,1.0,1.323,0.009
18/06/2023,09:12:07,0.524,1.0,1.331,0.008
18/06/2023,09:13:07,0.541,1.0,1.341,0.01
18/06/2023,09:14:07,0.566,1.0,1.35,0.009
18/06/2023,09:15:07,0.596,1.0,1.36,0.01
18/06/2023,09:16:07,0.637,1.0,1.37,0.01
18/06/2023,09:17:07,0.700,2.0,1.381,0.011
18/06/2023,09:18:07,0.712,2.0,1.393,0.012
18/06/2023,09:19:07,0.724,2.0,1.404,0.011
18/06/2023,09:20:07,0.795,2.0,1.417,0.013
18/06/2023,09:21:07,0.848,2.0,1.431,0.014
18/06/2023,09:22:08,0.893,2.0,1.445,0.014
18/06/2023,09:23:07,0.878,2.0,1.46,0.015
18/06/2023,09:24:08,0.935,2.0,1.475,0.015
18/06/2023,09:25:07,0.912,2.0,1.49,0.015
18/06/2023,09:26:08,0.965,2.0,1.506,0.016
18/06/2023,09:27:07,0.983,2.0,1.523,0.017
18/06/2023,09:28:08,0.996,2.0,1.539,0.016
18/06/2023,09:29:07,1.008,2.0,1.555,0.016
18/06/2023,09:30:08,1.024,2.0,1.573,0.018
18/06/2023,09:31:07,1.033,2.0,1.59,0.017
18/06/2023,09:32:07,1.049,2.0,1.607,0.017
18/06/2023,09:33:08,1.068,2.0,1.625,0.018
18/06/2023,09:34:07,1.091,3.0,1.642,0.017
18/06/2023,09:35:07,1.133,3.0,1.661,0.019
18/06/2023,09:36:07,1.151,3.0,1.68,0.019
18/06/2023,09:37:08,1.155,3.0,1.7,0.02
18/06/2023,09:38:07,1.077,2.0,1.718,0.018
18/06/2023,09:39:07,1.157,3.0,1.737,0.019
18/06/2023,09:40:07,1.153,3.0,1.756,0.019
18/06/2023,09:41:08,1.194,3.0,1.776,0.02
18/06/2023,09:42:07,1.231,3.0,1.797,0.021
18/06/2023,09:43:07,1.269,3.0,1.817,0.02
18/06/2023,09:44:07,1.266,3.0,1.839,0.022
18/06/2023,09:45:07,1.307,3.0,1.859,0.02
18/06/2023,09:46:08,1.351,3.0,1.882,0.023
18/06/2023,09:47:07,1.372,3.0,1.904,0.022
18/06/2023,09:48:07,1.387,3.0,1.927,0.023
18/06/2023,09:49:07,1.390,3.0,1.951,0.024
18/06/2023,09:50:07,1.360,3.0,1.974,0.023
18/06/2023,09:51:07,1.381,3.0,1.996,0.022
18/06/2023,09:52:07,1.373,3.0,2.02,0.024
18/06/2023,09:53:08,1.380,3.0,2.043,0.023
18/06/2023,09:54:07,1.353,3.0,2.065,0.022
18/06/2023,09:55:07,1.417,3.0,2.089,0.024
18/06/2023,09:56:08,1.420,3.0,2.112,0.023
18/06/2023,09:57:07,1.398,3.0,2.134,0.022
18/06/2023,09:58:07,1.410,3.0,2.159,0.025
18/06/2023,09:59:07,1.434,3.0,2.181,0.022
18/06/2023,10:00:08,1.436,3.0,2.206,0.025
18/06/2023,10:01:07,1.432,3.0,2.23,0.024